TITAN 3C TRANSTAGE DEB, 59980

Orbit data source: Space-Track

TITAN 3C TRANSTAGE DEB, 59980 is space debris in GEO originally from a launch on Thu, 26 Sep 1968 UTC launched from the Air Force Eastern Test Range (AFETR). Debris objects in space refer to the collection of defunct objects orbiting the Earth. Examples of debris include non-operational satellites, rocket bodies, and fragments generated from explosions, collisions, or faulty payload assembly.

Not visible in the next 10 days
Identifier
59980, 1968-081AN
Orbit
GEO
Country
Flag of USUS
Related business
Manufacturer
Unknown
Mission
Spacecraft
Bus & Motor
Unknown
Mass
Unknown
Launch date (UTC)
1968-09-26 (57 years ago)
Launch vehicle
Unknown
Launch site
Air Force Eastern Test Range (AFETR)
Object type
Payload
Rocket body
Debris
Shape & HBR
Unknown shape, 1.1 m
Radar Cross Section
RCS unknown

Expand to show TLE details & history
Last TLE update: 1 week ago

TLE from 1 week ago
0 TITAN 3C TRANSTAGE DEB
1 59980U 68081AN  25343.81236130 -.00000102  00000-0  00000-0 0  9999
2 59980   1.4272  51.2275 0047750 264.9433  93.8109  1.02246453 41580
Epoch: 2025-12-09T19:29Z
TLE epoch observation values (Epoch: 2025-12-09T19:29:48.016Z)
Latitude
0.00001°
Longitude
39.28234°
Altitude
35,256.322 km
Speed
3.094 km/s
True Right ascension
03h 22m 05s
True Declination
0° 00' 00"
Sunlit
Object was in daylight at epoch
Visualization orbit readout
Latitude
Unknown
Longitude
Unknown
Altitude
Unknown
Speed
Unknown
Apparent Right ascension
Unknown
Apparent Declination
Unknown
Sunlit
N/A
Visualization observer readout
Local Sidereal Time
22:36:06
Azimuth
Unknown
Elevation
Unknown
Doppler factor
Unknown
Orbital elements
Apogee altitude
35,441.776 km
Perigee altitude
35,044.294 km
Semi-major axis
41,621.172 km
Eccentricity
0.00478
Inclination
1.4272°
RAAN
51.2275°
Arg. of periapsis
264.9433°
True anomaly
94.35664°
Mean anomaly
93.8109°
Eccentric anomaly
94.08379°
Mean motion
0.25561 °/min
Orbital period
1,408.42 mins
BSTAR
0
Loading maneuver chart data...
Computing Atmospheric mass density...

Documentation

Showing up to 5 results
|